Theta_e
294 294 294 293 294 294 295 297 300 301 302 305 307 307 307 308 308 307 306 305 304 303 301 301 301 300 300 299 298 298 298 296 296 296 296 296 296 296 296 295 294 293 292 293 292 294 293 294 294 293 293 293 292 292 292 293 293 292 292 293 295 298
293 294 295 295 295 295 295 297 298 299 300 302 302 302 303 303 303 303 302 301 300 299 299 298 298 298 298 297 297 296 295 295 295 296 295 294 294 293 292 291 290 290 290 291 291 291 290 291 290 290 289 289 289 288 289 288 289 289 289 291 292 293
292 292 292 293 292 293 294 296 297 297 299 299 299 300 300 300 299 299 298 298 297 297 297 296 296 295 296 295 294 294 294 293 293 293 292 292 291 290 290 290 290 289 290 289 289 288 288 288 288 287 287 286 287 286 287 287 287 288 287 287 289 289
292 291 291 290 293 293 294 295 296 297 297 298 298 298 298 298 298 297 297 296 296 295 295 294 294 294 294 293 293 292 292 291 291 290 290 291 289 289 290 289 288 287 288 288 287 287 285 287 288 286 286 287 287 286 288 287 287 287 287 286 288 288
292 292 292 292 292 293 292 293 295 295 295 296 296 297 296 296 296 296 296 295 294 294 293 292 292 291 291 291 291 291 290 290 289 289 290 290 289 288 288 288 288 287 286 286 286 286 286 286 286 285 286 286 285 287 286 285 285 287 287 287 288 288
290 292 292 293 293 293 293 293 293 293 293 294 294 294 294 295 295 295 294 293 292 292 291 291 290 290 290 290 289 289 288 288 288 287 288 287 287 288 287 287 286 285 286 287 287 287 285 286 286 285 285 286 286 286 287 287 285 286 286 287 288 288
291 293 293 293 292 292 292 292 292 292 292 292 293 293 293 293 293 293 292 291 290 290 290 289 289 289 288 288 287 287 287 286 287 287 287 287 287 286 286 286 285 286 287 288 287 286 285 285 286 286 285 285 285 285 286 286 286 286 286 286 287 288
292 292 291 292 291 292 291 291 291 291 291 291 291 293 292 291 291 290 290 289 289 288 288 287 287 287 287 287 286 286 286 286 286 286 286 285 286 285 284 285 286 286 286 284 285 285 285 285 285 285 286 286 284 284 284 284 285 285 285 286 286 286
292 293 292 292 291 290 291 291 291 291 291 291 290 291 291 290 289 288 288 288 287 287 286 286 286 286 286 286 286 285 285 285 285 285 285 284 284 285 285 285 285 284 284 284 284 285 285 286 285 284 284 284 284 284 284 284 284 284 284 285 285 285
292 291 291 290 290 290 290 289 290 291 291 291 289 289 289 289 288 287 287 287 287 287 286 286 285 285 285 285 285 284 284 284 284 284 283 283 285 285 284 284 284 283 283 283 283 283 283 283 284 283 284 284 284 283 283 283 284 284 284 284 284 284
292 291 290 290 290 290 289 289 289 288 288 288 288 288 287 287 287 287 287 287 287 286 286 285 285 284 284 284 284 284 284 283 283 283 283 283 283 284 282 282 283 283 282 282 283 283 283 284 285 285 284 285 285 284 284 284 284 283 283 283 283 283
291 291 290 290 290 290 289 289 289 289 289 288 288 287 286 286 286 286 286 286 286 285 285 284 284 284 284 284 284 283 283 282 282 282 282 282 281 281 281 282 282 282 282 282 283 283 284 284 284 285 289 290 287 285 285 284 283 283 282 282 283 283
291 291 290 290 290 290 290 289 288 288 287 287 286 286 285 285 286 286 286 285 285 285 284 284 283 283 283 283 283 282 283 282 282 281 281 281 281 282 282 281 281 281 282 282 282 283 283 284 284 287 290 290 291 287 284 283 283 282 282 282 282 282
291 291 291 290 290 290 289 288 287 287 287 286 285 285 285 285 285 285 285 285 284 284 284 283 283 283 282 282 282 282 281 280 280 280 280 281 280 281 280 281 280 281 281 282 281 281 282 282 285 289 289 290 290 289 286 284 283 283 282 282 282 282
292 292 291 291 290 290 289 288 287 287 286 285 285 285 284 284 285 284 284 284 284 284 283 283 283 282 282 281 281 281 280 279 279 278 279 280 279 280 280 280 280 280 280 280 280 281 282 281 285 288 289 289 289 290 288 284 283 282 282 282 281 281
292 292 292 291 290 289 288 287 287 287 286 285 285 284 284 284 284 284 284 283 283 283 283 282 282 281 281 280 280 280 278 278 278 277 278 278 279 279 278 278 279 279 280 280 280 280 281 281 284 287 288 288 289 289 289 283 282 282 281 281 281 281
292 291 290 290 289 288 287 286 286 286 285 285 284 284 284 284 284 283 283 283 282 282 282 281 281 281 280 279 278 277 277 278 277 277 277 278 279 278 279 279 278 279 279 279 278 279 281 282 285 286 287 288 288 288 288 282 282 281 281 281 281 281
292 291 290 289 288 287 287 286 286 286 285 285 284 284 284 284 283 283 282 282 282 281 281 281 280 280 278 278 277 278 278 278 277 277 278 278 277 277 277 278 277 277 278 279 279 280 280 280 284 286 286 287 287 287 283 281 281 280 280 280 280 280
293 291 289 288 287 286 286 286 286 285 284 284 284 283 283 283 282 282 282 281 281 281 280 280 280 279 278 277 277 276 277 277 277 277 277 276 277 277 277 276 276 277 278 279 280 278 276 278 282 285 286 286 286 285 281 280 280 280 279 279 280 280
289 288 288 287 286 286 286 286 285 285 284 283 283 282 282 282 281 281 281 280 280 280 280 279 279 278 277 275 276 275 275 275 275 276 277 276 276 277 277 276 277 278 278 277 276 276 275 276 280 283 284 284 285 283 280 279 279 278 278 279 279 280
288 287 287 286 285 285 286 285 285 284 283 283 282 281 281 280 280 280 280 279 279 279 278 278 277 276 276 276 275 275 274 274 275 276 275 275 276 276 276 275 276 276 276 274 274 278 276 274 277 282 283 283 283 282 279 279 278 277 277 278 278 279
286 286 286 286 286 285 285 285 284 283 282 281 281 280 280 279 279 279 279 278 278 278 277 277 276 275 275 275 274 274 275 276 275 274 274 276 275 273 273 274 274 272 273 273 273 274 274 275 274 278 282 282 282 283 280 278 277 276 277 277 278 277
288 287 287 286 285 285 285 284 283 282 281 280 279 279 279 278 278 278 278 277 277 276 276 275 274 274 274 274 274 275 275 275 276 276 276 273 273 272 272 271 271 272 272 272 273 273 273 274 275 275 280 281 281 282 281 277 277 277 277 277 277 277
285 285 284 285 285 284 284 284 282 280 279 278 278 277 277 277 277 277 277 276 276 275 274 273 274 274 274 274 275 274 274 276 276 275 274 273 273 273 273 270 271 271 271 272 273 272 273 274 277 276 278 280 280 281 281 278 277 278 278 277 277 277
284 284 283 284 284 284 283 282 280 278 277 276 276 275 275 275 276 276 275 275 274 273 272 272 272 274 275 275 275 275 274 275 274 274 273 273 273 272 270 270 271 271 271 271 272 273 273 274 274 277 276 278 280 280 280 281 280 281 279 278 277 277
282 281 281 281 282 282 281 280 278 276 276 274 274 274 274 274 275 274 274 273 272 271 272 272 273 275 275 275 275 274 274 273 273 273 272 272 271 269 269 270 270 270 270 270 271 271 273 273 274 275 277 277 278 279 280 280 281 281 279 278 277 277
280 279 278 279 279 279 278 277 276 275 274 273 273 273 273 273 273 273 272 271 271 271 272 273 274 274 273 273 273 272 272 272 271 270 270 269 268 268 268 268 269 269 269 269 270 270 271 272 273 273 274 277 277 278 279 280 280 280 280 277 277 277
278 278 277 276 276 276 275 275 275 274 273 273 272 272 273 273 272 272 271 271 272 272 273 273 273 272 272 272 272 271 270 270 270 269 269 268 267 266 265 267 268 268 268 269 269 269 270 271 271 271 272 274 275 276 278 279 279 279 279 278 277 279
276 276 275 274 272 273 273 272 272 272 272 271 272 272 273 272 272 271 271 271 271 272 272 272 271 271 271 270 269 269 270 270 269 268 268 266 265 265 266 266 268 268 268 268 268 269 269 269 270 271 271 273 274 275 276 277 276 278 278 277 277 277
276 274 274 273 271 271 271 270 270 270 270 270 271 271 272 271 271 270 270 270 271 271 271 271 271 270 269 269 270 269 268 267 267 266 266 265 265 265 265 265 266 267 267 267 268 268 269 269 269 270 271 273 275 275 276 276 276 276 276 276 276 277
274 273 273 271 270 270 269 269 269 269 269 269 270 271 270 270 270 270 270 270 270 270 270 269 269 269 268 268 267 267 267 266 266 266 265 265 264 264 265 265 265 266 264 265 267 268 268 269 269 270 276 276 278 276 275 275 275 275 276 277 279 277
274 273 272 271 270 269 268 268 267 268 268 268 269 269 269 269 269 269 269 269 269 268 268 268 267 267 267 266 265 265 265 269 272 270 266 265 273 275 276 275 268 268 268 266 267 267 270 269 271 276 278 278 278 278 278 278 278 279 278 278 279 277
272 272 271 270 269 268 267 266 266 266 267 267 268 268 269 269 269 269 268 268 267 268 267 267 266 267 266 265 263 264 263 262 264 272 273 273 272 273 274 275 275 275 275 272 268 268 275 275 276 277 277 277 277 278 278 278 278 278 278 279 275 272
271 271 270 269 268 268 267 266 266 266 266 267 267 268 269 269 269 268 267 267 267 267 267 267 266 266 264 264 264 263 262 261 260 261 269 271 271 272 273 274 273 273 274 274 274 271 268 273 275 276 276 276 277 277 277 278 278 278 277 277 276 270
272 271 270 269 268 267 267 266 265 265 265 265 265 266 266 266 266 266 265 266 266 266 266 266 266 265 264 264 263 262 261 259 259 258 258 263 269 271 271 271 272 272 273 273 274 274 274 274 274 275 275 276 276 276 276 277 276 275 275 274 270 268
270 269 268 267 267 266 265 264 263 263 263 263 263 263 263 263 264 265 266 265 265 265 265 265 265 265 264 265 264 262 260 258 258 256 258 258 258 261 265 269 270 271 271 272 273 273 273 273 274 274 275 275 275 275 275 275 271 273 273 271 267 267
269 268 267 266 265 265 264 263 262 262 261 261 261 261 261 262 263 264 265 265 265 265 265 265 265 264 264 264 262 260 259 258 259 260 259 257 258 259 258 259 261 266 270 269 269 271 272 272 273 274 274 274 273 273 274 271 266 265 265 266 266 267
267 266 266 265 264 264 263 262 261 260 260 260 260 260 261 262 263 264 265 265 264 264 265 264 264 263 263 261 259 258 259 259 259 259 258 259 260 258 258 259 259 261 266 268 269 270 271 272 272 272 272 272 272 272 271 264 263 263 264 264 265 265
Wind_Speed
4 5 5 4 4 4 4 5 6 6 5 6 7 8 7 7 6 7 7 7 6 6 7 7 7 6 7 6 7 7 7 6 5 5 5 5 5 7 6 7 7 6 6 5 5 6 5 5 5 5 6 5 5 5 5 5 4 4 4 3 3 4
4 5 5 5 5 5 5 6 6 7 7 8 8 7 8 8 9 8 8 7 8 7 7 6 6 6 7 6 7 7 6 5 5 6 6 6 6 6 6 6 5 5 5 5 5 5 5 5 4 4 4 5 4 2 3 3 3 4 4 4 4 3
4 4 4 4 4 4 4 5 7 6 6 7 7 10 9 9 7 8 7 8 8 9 8 7 7 8 7 7 6 7 6 6 7 6 5 6 7 6 6 5 5 4 5 4 5 4 4 4 4 4 3 3 3 3 3 4 4 4 4 4 5 3
5 4 4 4 5 5 6 5 6 6 6 6 7 8 7 9 8 8 8 7 8 8 8 8 7 7 7 8 7 8 7 7 7 5 6 7 4 5 5 5 4 4 4 5 4 4 4 3 3 3 3 4 4 4 3 3 4 4 4 4 5 5
5 6 6 5 6 5 5 5 6 6 6 6 6 9 7 7 8 8 8 9 9 8 8 8 8 7 8 9 7 8 7 6 6 5 7 6 5 4 5 5 5 5 4 4 4 4 4 4 4 4 4 4 3 4 4 3 4 4 5 5 6 6
5 6 6 6 6 5 6 6 5 6 6 6 7 9 9 8 8 8 9 9 9 8 9 9 8 9 8 9 7 8 6 6 6 5 6 5 5 7 5 5 4 4 4 4 5 5 4 4 4 4 3 3 3 4 4 4 4 4 4 5 6 6
6 6 6 6 6 5 6 6 6 6 6 6 8 8 7 8 7 9 8 10 11 9 10 9 8 9 9 8 7 7 6 6 6 6 6 6 7 5 5 4 3 4 5 6 5 4 4 4 3 3 4 3 3 4 4 4 4 4 5 5 6 7
6 6 5 5 5 6 6 6 6 6 6 6 6 9 8 7 7 8 9 9 11 10 10 8 8 9 8 8 7 7 6 6 6 6 5 5 5 4 4 4 5 5 5 4 3 2 3 3 4 4 4 4 4 3 4 4 4 5 5 6 6 6
8 7 6 6 6 6 6 7 7 6 7 7 6 6 8 8 8 8 10 9 10 10 9 8 8 8 7 7 7 6 6 6 5 5 5 4 4 5 5 5 5 4 3 3 3 3 3 4 4 4 4 4 4 4 4 5 5 5 5 5 6 6
7 8 8 8 7 7 6 5 6 7 8 9 7 7 8 7 9 9 9 10 10 9 9 7 7 7 7 6 6 6 6 5 5 5 4 4 5 5 4 4 3 3 2 2 3 3 3 4 4 4 4 4 4 4 4 4 6 7 6 7 7 7
9 9 9 9 9 10 9 8 7 6 5 6 7 7 8 7 9 10 9 9 10 8 8 7 6 6 6 6 6 6 6 5 5 4 4 5 4 4 3 1 1 2 3 3 3 4 3 3 4 4 4 6 7 5 6 7 7 7 8 9 8 7
9 9 9 10 11 11 10 9 8 8 9 8 7 8 6 8 8 10 9 10 9 8 7 7 6 6 6 6 6 5 5 5 5 5 5 4 3 2 2 2 2 3 3 4 4 3 4 4 4 8 13 10 7 6 6 6 6 7 7 9 10 9
9 9 10 11 12 12 11 10 9 8 7 8 8 8 6 7 9 9 10 10 8 8 7 7 7 6 7 5 6 5 5 5 5 4 3 2 2 2 2 2 4 4 4 4 5 7 7 6 6 14 14 14 15 9 6 6 7 6 7 7 9 10
12 14 14 13 12 12 12 11 10 9 9 8 9 8 6 7 8 10 9 9 8 7 8 7 7 7 6 5 5 5 5 4 4 3 2 2 3 3 2 4 4 4 4 4 5 5 6 6 10 13 13 15 15 13 9 7 7 8 7 7 9 10
16 15 13 12 12 12 11 12 12 11 10 10 8 8 8 8 9 9 9 7 8 7 7 7 8 7 6 5 4 4 4 4 4 3 3 4 2 3 5 4 4 4 4 4 5 6 6 5 9 12 13 14 14 15 13 7 7 8 9 9 9 10
10 11 11 11 10 9 10 9 11 10 9 10 9 9 8 9 8 9 9 7 7 7 6 6 7 7 6 4 4 3 4 4 4 3 2 2 4 4 4 4 4 3 4 4 4 5 6 6 8 13 14 14 15 15 13 6 7 7 8 8 9 9
12 10 11 12 13 11 11 9 8 10 10 10 11 8 10 8 10 8 8 8 7 7 6 7 7 7 5 4 3 3 4 4 3 4 3 4 4 4 4 4 4 4 4 4 4 4 6 6 10 12 14 14 16 17 11 7 7 8 8 8 7 8
19 19 16 11 12 11 11 11 10 11 11 8 10 9 8 9 9 9 7 8 7 7 6 7 7 6 4 4 3 3 4 4 4 4 3 3 3 2 2 3 3 4 5 4 4 3 6 7 10 12 12 15 17 17 7 7 8 9 9 10 8 8
12 12 12 12 12 13 12 11 11 11 12 11 9 10 9 9 10 9 8 8 6 6 6 7 7 6 4 3 3 4 4 4 4 4 3 3 3 4 4 4 3 3 3 4 4 3 4 6 9 12 13 15 19 12 8 8 8 9 10 11 9 9
9 10 14 14 12 12 12 12 12 12 13 12 10 11 10 9 10 8 8 8 6 6 6 6 6 5 4 3 4 3 3 3 3 3 3 3 3 4 3 3 3 3 3 3 4 4 4 5 9 12 14 16 17 15 9 8 9 10 10 10 10 9
15 14 13 14 15 13 13 13 14 14 13 12 11 10 11 10 9 9 9 8 6 6 6 6 5 5 4 4 3 3 4 3 3 1 3 2 1 2 3 3 3 4 3 3 3 6 4 4 6 10 14 16 17 13 7 8 8 10 11 11 12 11
14 13 15 17 17 15 15 14 13 12 13 11 10 11 10 10 9 7 7 7 7 6 5 5 5 5 4 4 4 3 3 2 2 3 2 2 2 2 3 3 3 4 4 3 3 4 4 3 3 6 17 17 17 18 10 6 8 11 13 13 12 13
17 19 19 14 14 14 13 12 12 12 11 12 11 10 9 8 8 8 8 7 7 6 5 4 4 6 4 4 3 3 3 2 2 2 3 3 4 3 3 3 3 2 3 3 3 2 3 4 5 5 14 16 17 19 15 6 8 9 11 12 13 11
8 9 8 9 14 14 13 12 13 12 12 11 10 9 7 8 8 8 8 8 6 5 5 5 4 4 5 3 4 3 3 3 4 3 3 3 2 3 3 2 2 2 1 2 3 2 4 4 7 7 10 15 16 17 19 10 8 11 11 13 11 11
11 11 11 10 11 11 10 12 13 12 10 11 10 8 8 7 8 8 7 7 6 6 5 5 5 5 4 3 2 4 5 4 3 3 2 2 3 2 3 4 5 6 6 4 4 5 5 5 5 12 10 13 16 16 17 18 14 20 12 10 13 12
10 10 7 8 8 8 9 13 14 12 12 11 8 8 7 8 7 7 7 6 6 6 5 4 5 5 3 3 3 4 4 3 1 1 1 2 1 2 5 6 5 5 6 8 5 4 6 7 7 9 13 12 16 16 18 18 19 20 14 13 11 12
15 12 9 8 9 8 9 8 15 14 14 9 8 9 10 9 8 8 7 7 6 6 6 5 5 4 3 4 3 3 2 0 1 1 2 0 2 4 5 4 4 5 6 6 8 7 6 7 7 6 9 14 14 16 17 19 21 21 22 14 10 11
10 13 13 8 7 9 8 7 11 18 12 10 9 9 9 10 10 9 8 7 7 7 6 7 5 4 4 4 3 2 1 2 1 1 0 2 3 3 3 4 4 5 6 7 7 7 7 7 7 7 6 7 9 10 15 20 20 21 22 21 18 24
11 11 11 11 5 6 6 7 3 6 11 11 9 9 9 10 10 10 9 8 7 7 6 5 4 4 4 3 2 1 1 0 0 1 1 2 3 3 3 5 6 6 7 7 8 8 7 7 7 8 7 7 8 8 10 11 12 17 18 12 10 15
11 11 10 9 6 5 6 5 6 6 8 8 9 9 10 10 10 11 10 9 7 5 5 6 7 6 4 3 2 2 1 1 0 1 1 2 2 4 5 6 6 6 6 7 7 8 8 8 7 8 10 12 12 11 10 9 8 8 9 10 10 11
12 12 12 10 7 7 6 6 6 7 7 9 9 10 11 10 9 8 10 8 7 7 5 5 5 5 4 4 3 2 1 1 1 2 2 1 1 0 0 1 2 4 3 4 6 8 10 8 7 8 14 16 19 16 14 12 12 12 11 16 25 18
15 15 13 10 9 9 9 8 7 6 6 7 7 8 11 11 10 9 7 6 7 6 6 6 5 5 5 4 4 3 2 5 6 4 2 2 6 6 4 4 0 2 1 3 4 4 7 9 11 20 24 23 23 23 22 21 22 22 20 24 30 20
10 11 12 12 10 9 10 9 8 8 7 7 7 8 9 10 9 8 7 8 7 6 6 7 7 5 5 4 4 4 5 4 7 9 9 8 8 6 4 4 6 9 10 7 4 5 12 16 18 21 22 24 24 25 25 24 23 23 24 24 18 13
14 14 14 11 10 10 9 8 7 6 6 5 6 8 9 9 9 10 9 8 7 7 5 5 5 5 5 5 4 5 5 6 6 6 7 7 6 6 4 4 7 9 11 12 11 8 4 10 16 20 22 23 25 25 26 25 25 25 25 24 22 10
11 9 10 10 10 9 9 10 8 7 7 7 7 8 8 7 7 9 9 8 8 7 7 5 5 5 5 6 6 5 5 6 5 5 4 6 5 4 5 5 8 10 11 12 12 13 12 14 17 19 20 22 23 24 24 26 26 23 24 24 13 11
9 10 10 10 11 11 10 10 9 9 8 7 7 7 7 6 6 8 9 9 9 8 5 5 5 5 5 4 5 5 6 4 4 3 2 0 3 3 5 4 7 9 12 11 12 12 15 17 18 20 21 21 21 22 22 22 17 19 18 16 11 10
10 10 11 12 12 11 11 11 9 8 7 7 7 8 7 7 7 7 6 6 5 6 5 5 5 5 5 5 5 5 4 3 2 2 1 1 1 0 1 5 5 7 10 8 8 13 17 18 19 20 20 20 20 20 22 18 10 11 10 9 7 9
9 9 9 10 11 11 11 9 8 8 8 8 8 9 8 9 9 8 7 6 6 5 4 5 6 5 5 5 5 4 3 2 2 3 2 2 1 1 1 1 2 3 6 9 10 14 17 18 19 18 18 18 19 20 21 12 12 12 11 11 10 10
Wind_Direction
134 125 124 117 105 100 101 103 110 111 114 121 127 130 128 129 121 114 108 111 111 111 108 109 103 99 95 90 89 87 88 88 88 88 94 73 56 60 55 54 51 48 45 53 48 44 40 38 39 35 34 37 35 21 14 356 359 358 339 329 340 311
137 136 133 126 122 112 106 108 107 109 117 115 112 107 113 113 115 116 111 106 105 101 94 86 91 91 95 95 96 93 96 98 89 83 73 68 64 63 64 64 63 58 56 50 54 47 42 42 35 40 40 41 40 27 13 339 8 2 343 326 332 325
125 123 120 116 104 99 99 106 112 116 111 113 120 122 117 110 111 106 107 105 103 102 101 101 98 96 95 94 97 96 87 80 77 77 82 71 61 68 66 68 63 61 66 62 59 60 51 50 31 26 48 48 24 358 352 343 1 348 322 319 315 316
128 114 99 99 100 101 102 106 108 110 112 118 116 109 112 117 114 114 114 106 105 106 109 103 97 101 100 96 87 84 81 75 75 78 74 79 66 73 70 67 61 64 62 61 50 52 48 42 36 14 35 19 7 348 343 328 327 318 302 302 295 294
144 137 130 125 120 117 111 106 109 115 117 115 117 116 116 116 119 116 114 112 111 110 108 106 103 102 96 91 86 83 79 77 74 71 79 73 67 58 69 64 61 58 62 64 57 48 40 27 18 2 15 355 343 317 308 293 287 287 291 297 289 287
138 129 127 125 125 123 117 116 111 111 111 118 119 118 122 120 119 118 115 113 109 112 107 102 104 96 93 87 86 86 80 79 73 70 77 75 67 60 43 53 57 65 62 57 38 34 22 12 357 346 339 307 292 284 281 284 279 271 272 276 284 289
146 147 143 139 132 123 122 121 122 119 121 120 120 119 119 117 121 119 119 118 112 106 102 99 97 95 91 92 89 87 84 79 80 70 71 69 62 56 56 44 47 50 45 37 27 11 1 338 323 317 307 290 263 256 270 283 288 288 284 281 281 285
154 146 145 137 133 132 127 124 123 122 117 119 124 127 124 123 121 122 119 117 110 106 100 101 97 97 99 99 92 90 87 80 73 74 64 75 79 65 59 56 35 43 29 20 359 351 328 314 306 292 285 282 285 277 274 278 282 284 285 287 284 282
162 153 144 141 137 134 133 133 132 130 127 123 124 125 125 130 124 122 114 110 107 106 103 103 103 103 101 96 94 89 81 79 81 77 74 71 83 69 51 35 36 13 22 346 351 338 319 302 293 290 289 291 292 296 303 303 298 292 290 283 282 282
159 155 150 142 140 134 130 132 139 142 141 136 135 131 128 128 123 118 113 111 106 106 108 106 105 99 96 94 92 90 89 84 77 74 69 66 58 55 50 35 20 331 351 334 335 311 305 298 299 296 295 297 304 310 307 305 311 312 307 302 297 295
167 159 153 149 145 144 145 143 140 133 121 124 131 129 129 132 121 117 115 112 109 111 114 108 100 97 95 97 94 88 83 79 75 68 61 56 50 42 33 18 26 7 355 343 326 314 308 306 310 315 333 335 333 338 332 328 323 317 312 307 301 294
166 162 156 155 155 153 153 151 151 148 142 139 134 126 134 125 121 119 116 112 113 114 109 106 104 103 103 94 90 89 85 79 69 65 57 47 42 33 22 19 13 26 6 346 334 328 332 335 330 329 331 337 333 330 327 319 312 309 303 303 304 303
167 162 163 166 164 163 158 155 150 143 136 138 135 134 140 129 123 117 118 116 117 116 113 109 106 103 93 94 91 85 80 73 71 68 65 55 43 44 24 41 33 14 3 356 347 343 343 339 333 332 335 335 336 335 327 319 310 302 297 298 303 306
176 177 175 172 169 165 160 155 152 146 147 144 138 137 133 126 121 121 117 120 122 118 117 113 109 97 91 86 84 85 84 84 86 83 85 74 43 17 31 36 23 9 2 354 350 345 335 330 323 324 327 329 331 332 326 319 313 311 309 306 307 307
185 180 174 171 170 165 165 155 151 156 153 142 142 132 129 126 123 120 118 121 119 119 114 114 107 102 97 90 92 91 92 101 96 78 56 37 18 28 31 11 13 4 357 1 353 338 327 321 315 316 316 324 327 329 328 317 313 312 311 312 310 308
180 183 176 168 162 158 154 159 149 146 142 135 132 129 130 126 122 120 121 117 115 113 109 109 106 103 103 103 99 101 101 95 81 62 53 45 31 35 19 10 7 358 0 356 346 328 315 315 311 316 317 322 325 326 333 319 318 311 306 309 310 309
176 163 164 168 163 156 150 148 148 140 134 137 132 135 130 127 124 120 123 119 116 110 109 107 103 103 103 102 105 105 88 78 71 56 36 44 34 24 4 346 351 346 353 347 340 323 307 302 307 314 317 321 327 335 341 320 316 312 309 309 311 309
179 177 173 156 151 154 154 150 150 140 137 134 133 133 131 129 125 124 123 118 119 119 119 115 110 106 106 107 108 96 80 72 62 49 29 38 25 11 1 351 13 352 339 326 322 316 306 304 312 319 321 330 339 344 340 329 322 320 317 314 316 312
165 158 146 152 154 152 153 151 148 140 136 135 137 133 134 131 130 132 129 124 124 123 121 118 117 117 116 125 108 85 73 62 43 31 37 39 21 10 1 350 335 313 311 305 302 303 296 306 314 324 333 343 346 346 341 334 328 322 319 316 317 317
130 138 148 148 152 153 149 152 148 144 141 141 143 139 138 137 136 137 132 129 129 124 119 115 119 121 120 112 90 81 71 60 56 51 32 37 2 355 342 325 319 306 291 284 288 296 313 313 317 328 341 350 351 352 343 332 328 318 318 316 316 317
152 149 145 148 154 162 157 155 151 148 147 148 148 144 141 142 140 142 138 132 127 121 115 112 111 113 113 100 86 83 66 60 59 48 36 15 353 319 320 320 308 297 290 271 284 306 323 315 312 327 348 353 353 350 339 335 327 322 321 324 322 323
131 147 158 165 165 157 157 155 155 152 147 148 144 143 145 147 143 135 123 120 117 115 108 109 106 104 102 94 85 67 68 66 53 32 31 356 10 330 320 296 286 277 293 306 325 322 315 320 328 344 352 353 351 349 346 335 335 330 325 325 326 326
161 167 169 162 153 155 156 155 149 149 148 144 145 149 145 138 130 125 122 115 112 107 104 96 100 100 88 93 88 81 60 63 56 27 30 6 346 334 298 276 267 286 307 318 317 309 323 336 347 350 355 351 348 347 350 341 337 328 324 322 320 317
139 135 139 151 155 155 157 155 150 146 145 144 145 142 134 130 126 122 119 117 114 110 101 99 93 89 89 75 83 81 77 48 42 24 15 346 319 288 280 297 327 338 332 333 322 352 352 349 354 348 353 351 349 348 349 348 338 333 324 319 309 312
148 152 149 150 154 154 155 149 144 143 143 141 144 136 133 126 125 121 120 120 116 111 107 100 92 85 80 75 93 99 71 49 41 6 337 288 272 272 328 1 0 359 351 4 12 358 356 355 359 350 345 346 348 347 345 340 336 333 330 317 314 315
135 133 133 139 144 147 149 151 144 146 143 146 142 133 128 125 124 123 123 123 119 115 108 101 92 84 76 97 69 69 86 44 34 295 246 251 263 6 17 6 3 354 354 349 355 6 354 347 348 345 344 343 344 344 340 337 336 334 328 322 309 310
148 139 133 139 140 143 145 153 146 146 148 154 144 146 140 137 134 133 132 128 125 118 118 103 97 94 89 71 81 92 102 128 212 226 247 193 27 39 28 359 358 359 348 347 348 348 346 341 335 332 337 341 337 337 335 336 334 331 328 320 307 305
132 140 139 137 143 143 147 154 157 152 160 147 149 145 142 140 139 136 135 130 126 127 123 116 111 101 87 74 85 119 166 182 210 194 3 55 47 42 32 3 4 359 356 346 341 341 335 333 328 328 331 330 326 326 333 333 332 331 329 324 315 315
141 146 145 140 134 131 132 139 133 135 140 148 146 146 144 143 140 128 125 131 133 128 130 128 134 121 109 99 111 106 108 50 69 70 58 75 49 26 23 16 11 2 355 345 332 330 332 333 331 329 326 328 327 327 327 330 330 329 326 315 304 309
148 148 147 143 138 127 126 126 131 135 136 135 141 141 140 137 144 140 142 134 132 120 138 143 130 129 125 130 129 137 116 6 136 97 65 48 14 37 12 15 5 356 342 329 325 325 330 332 336 333 333 334 335 333 333 332 324 319 316 315 310 309
154 158 154 155 151 142 137 134 132 134 133 125 140 147 142 140 140 135 132 131 134 143 141 128 129 134 130 134 118 97 133 136 347 15 359 311 163 157 172 16 337 308 276 293 319 333 329 330 331 325 327 328 331 333 333 333 331 327 322 320 323 322
161 161 160 159 157 152 147 143 134 130 135 145 148 149 144 142 138 137 135 138 144 137 132 133 133 135 133 129 132 127 38 18 41 40 56 343 355 5 355 24 318 294 347 12 329 325 328 320 315 323 329 330 331 332 331 329 328 327 324 325 327 328
168 159 161 161 159 157 154 151 154 151 153 155 159 156 151 146 141 143 148 155 149 143 139 140 135 140 130 122 102 90 84 47 16 32 50 36 14 4 357 356 12 9 2 359 344 323 325 320 322 329 332 333 334 334 334 335 334 332 329 330 330 329
172 176 170 162 160 159 155 152 158 156 154 154 148 158 160 159 153 154 160 153 143 139 143 141 139 131 121 113 108 95 85 73 62 7 13 15 349 347 355 32 16 359 356 351 346 338 312 326 333 335 336 336 336 336 336 336 337 338 337 335 337 324
169 158 157 159 161 155 156 161 163 155 157 160 168 169 167 166 162 152 149 150 145 145 148 146 131 127 123 120 110 107 106 105 104 74 356 336 338 357 10 5 355 351 350 349 347 346 343 341 340 341 342 341 341 341 340 338 339 341 341 341 342 335
157 159 162 166 167 165 166 170 171 170 166 162 164 164 165 161 160 153 152 153 154 152 147 139 130 128 122 123 131 127 118 123 131 151 159 98 332 336 340 347 349 349 347 347 352 351 351 348 347 347 347 348 347 345 341 341 340 339 346 351 342 334
158 168 173 170 168 169 177 179 176 163 159 158 157 154 154 156 150 141 125 127 146 140 137 135 131 131 137 155 133 122 124 124 144 150 160 176 168 244 310 310 317 331 345 350 351 352 352 351 352 352 351 350 348 346 346 344 336 344 349 353 349 340
167 171 171 172 177 177 178 179 168 161 158 157 155 158 159 158 154 148 149 150 145 134 126 126 127 156 161 141 129 133 130 142 147 165 194 194 193 187 210 248 283 291 315 348 357 354 352 351 351 351 351 350 350 351 355 353 352 346 346 343 340 338